Date String (YYYY-MM-DD hh:mm:ss) UTC,Instrument flags,Ambient pressure (hPa),Sample flow (lpm),Bypass flow (lpm),Sample temperature (°C),Ambient temperature (°C),ASC tube jacket temperature (°C),LED temperature (°C),Box temperature (°C),Sample RH (%),Span deviation,Mass concentration (μg/m³),Mass concentration (μg/m³),Mass concentration (μg/m³)
DateTimeUTC,F1_M11,P_M11,Q1_M11,Q2_M11,T1_M11,T2_M11,T3_M11,T4_M11,T5_M11,U1_M11,ZSPAN_M11,X2_M11,X0_M11,X1_M11
2023-01-13 23:00:00,,0827.4,5.01,0.00,26.9,25.7,00.0,35.7,28.7,12.4,0000.0,0004.28,0008.98,0003.91
2023-01-13 23:01:00,,0827.4,5.00,0.00,26.9,25.7,00.0,35.7,28.7,12.3,0000.0,0004.30,0009.02,0003.94
2023-01-13 23:02:00,,0827.4,4.99,0.00,26.9,25.7,00.0,35.7,28.7,13.2,0000.0,0004.33,0008.73,0003.96
2023-01-13 23:03:00,,0827.4,5.00,0.00,26.9,25.7,00.0,35.7,28.7,13.6,0000.0,0004.34,0008.47,0003.97
2023-01-13 23:04:00,,0827.4,5.01,0.00,26.9,25.7,00.0,35.7,28.7,13.7,0000.0,0004.38,0008.57,0003.98
2023-01-13 23:05:00,,0827.4,5.00,0.00,27.0,25.7,00.0,35.7,28.8,13.5,0000.0,0004.41,0009.71,0004.00
2023-01-13 23:06:00,,0827.4,5.00,0.00,27.0,25.7,00.0,35.7,28.8,13.5,0000.0,0004.43,0009.71,0004.02
2023-01-13 23:07:00,,0827.4,4.99,0.00,27.0,25.7,00.0,35.7,28.8,13.0,0000.0,0004.50,0009.72,0004.10
2023-01-13 23:08:00,,0827.4,4.99,0.00,27.0,25.7,00.0,35.7,28.8,12.9,0000.0,0004.57,0009.71,0004.15
2023-01-13 23:09:00,,0827.3,4.99,0.00,27.0,25.7,00.0,35.8,28.8,12.8,0000.0,0004.64,0009.83,0004.20
2023-01-13 23:10:00,,0827.3,5.01,0.00,27.0,25.7,00.0,35.8,28.8,12.7,0000.0,0004.70,0009.55,0004.26
2023-01-13 23:11:00,,0827.3,5.00,0.00,27.0,25.7,00.0,35.8,28.8,12.8,0000.0,0004.77,0009.21,0004.34
2023-01-13 23:12:00,,0827.3,5.01,0.00,27.0,25.7,00.0,35.8,28.8,13.2,0000.0,0004.82,0009.20,0004.40
2023-01-13 23:13:00,,0827.3,5.01,0.00,27.0,25.7,00.0,35.8,28.8,13.3,0000.0,0004.88,0009.24,0004.49
2023-01-13 23:14:00,,0827.2,4.99,0.00,27.0,25.6,00.0,35.8,28.8,13.2,0000.0,0004.98,0009.68,0004.61
2023-01-13 23:15:00,,0827.2,5.00,0.00,27.0,25.7,00.0,35.8,28.8,13.2,0000.0,0005.07,0010.05,0004.69
2023-01-13 23:16:00,,0827.3,5.00,0.00,27.0,25.7,00.0,35.8,28.7,12.6,0000.0,0005.13,0009.15,0004.73
2023-01-13 23:17:00,,0827.3,5.00,0.00,27.0,25.7,00.0,35.8,28.8,12.2,0000.0,0005.13,0008.99,0004.75
2023-01-13 23:18:00,,0827.4,5.00,0.00,27.0,25.7,00.0,35.8,28.8,12.1,0000.0,0005.09,0008.97,0004.73
2023-01-13 23:19:00,,0827.4,5.00,0.00,27.0,25.7,00.0,35.8,28.8,13.1,0000.0,0005.09,0009.00,0004.73
2023-01-13 23:20:00,,0827.4,5.00,0.00,27.0,25.7,00.0,35.8,28.8,13.4,0000.0,0005.08,0008.89,0004.75
2023-01-13 23:21:00,,0827.4,5.01,0.00,27.0,25.7,00.0,35.8,28.8,12.9,0000.0,0005.17,0008.88,0004.82
2023-01-13 23:22:00,,0827.4,5.00,0.00,27.0,25.7,00.0,35.8,28.8,12.1,0000.0,0005.30,0009.04,0004.93
2023-01-13 23:23:00,,0827.4,5.00,0.00,27.0,25.6,00.0,35.8,28.8,11.6,0000.0,0005.43,0009.36,0005.04
2023-01-13 23:24:00,,0827.4,5.00,0.00,27.0,25.6,00.0,35.8,28.8,11.5,0000.0,0005.50,0009.59,0005.12
2023-01-13 23:25:00,,0827.4,4.99,0.00,27.0,25.6,00.0,35.8,28.8,11.4,0000.0,0005.56,0010.63,0005.16
2023-01-13 23:26:00,,0827.4,5.00,0.00,27.0,25.6,00.0,35.8,28.8,11.3,0000.0,0005.63,0010.43,0005.24
2023-01-13 23:27:00,,0827.4,4.99,0.00,27.0,25.5,00.0,35.8,28.7,11.0,0000.0,0005.66,0010.25,0005.32
2023-01-13 23:28:00,,0827.4,4.99,0.00,27.0,25.6,00.0,35.8,28.7,11.1,0000.0,0005.75,0010.38,0005.39
2023-01-13 23:29:00,,0827.4,5.00,0.00,27.0,25.6,00.0,35.8,28.7,11.3,0000.0,0005.83,0010.49,0005.46
2023-01-13 23:30:00,,0827.4,5.01,0.00,27.0,25.6,00.0,35.8,28.8,11.3,0000.0,0005.88,0010.96,0005.51
2023-01-13 23:31:00,,0827.4,5.01,0.00,27.0,25.6,00.0,35.8,28.7,11.0,0000.0,0005.90,0011.00,0005.53
2023-01-13 23:32:00,,0827.4,5.01,0.00,27.0,25.7,00.0,35.8,28.8,10.5,0000.0,0005.79,0010.77,0005.48
2023-01-13 23:33:00,,0827.4,4.99,0.00,27.0,25.7,00.0,35.8,28.8,10.0,0000.0,0005.63,0010.61,0005.34
2023-01-13 23:34:00,,0827.4,5.00,0.00,27.0,25.7,00.0,35.8,28.8,09.7,0000.0,0005.44,0010.19,0005.17
2023-01-13 23:35:00,,0827.3,4.99,0.00,27.0,25.7,00.0,35.8,28.8,09.5,0000.0,0005.25,0009.75,0004.99
2023-01-13 23:36:00,,0827.3,5.01,0.00,27.0,25.7,00.0,35.8,28.8,09.1,0000.0,0004.98,0008.10,0004.76
2023-01-13 23:37:00,,0827.3,5.00,0.00,27.0,25.6,00.0,35.8,28.8,08.7,0000.0,0004.67,0007.71,0004.46
2023-01-13 23:38:00,,0827.3,5.01,0.00,27.0,25.7,00.0,35.8,28.8,08.7,0000.0,0004.47,0007.53,0004.24
2023-01-13 23:39:00,,0827.3,4.99,0.00,27.0,25.7,00.0,35.8,28.8,08.6,0000.0,0004.16,0006.91,0003.95
2023-01-13 23:40:00,,0827.3,5.00,0.00,27.0,25.7,00.0,35.8,28.8,08.8,0000.0,0003.89,0006.26,0003.71
2023-01-13 23:41:00,,0827.2,5.00,0.00,27.0,25.7,00.0,35.8,28.8,08.9,0000.0,0003.70,0005.02,0003.54
2023-01-13 23:42:00,,0827.3,4.99,0.00,27.0,25.7,00.0,35.8,28.8,09.0,0000.0,0003.54,0004.61,0003.40
2023-01-13 23:43:00,,0827.2,5.00,0.00,27.0,25.7,00.0,35.8,28.8,09.1,0000.0,0003.46,0004.45,0003.33
2023-01-13 23:44:00,,0827.2,5.00,0.00,27.0,25.7,00.0,35.8,28.8,09.2,0000.0,0003.46,0004.41,0003.32
2023-01-13 23:45:00,,0827.3,5.01,0.00,27.0,25.6,00.0,35.8,28.8,09.1,0000.0,0003.51,0004.50,0003.36
2023-01-13 23:46:00,,0827.4,5.01,0.00,27.0,25.6,00.0,35.8,28.8,09.2,0000.0,0003.56,0004.77,0003.41
2023-01-13 23:47:00,,0827.4,5.00,0.00,27.0,25.6,00.0,35.8,28.8,09.5,0000.0,0003.76,0005.37,0003.56
2023-01-13 23:48:00,,0827.4,5.00,0.00,27.0,25.6,00.0,35.8,28.8,09.4,0000.0,0004.07,0005.96,0003.85
2023-01-13 23:49:00,,0827.4,5.00,0.00,27.0,25.6,00.0,35.8,28.8,09.3,0000.0,0004.37,0006.50,0004.16
2023-01-13 23:50:00,,0827.4,5.00,0.00,27.0,25.6,00.0,35.8,28.7,09.4,0000.0,0004.74,0007.23,0004.51
2023-01-13 23:51:00,,0827.3,5.00,0.00,27.0,25.6,00.0,35.8,28.8,09.6,0000.0,0005.09,0007.84,0004.83
2023-01-13 23:52:00,,0827.4,4.99,0.00,27.0,25.6,00.0,35.8,28.8,09.6,0000.0,0005.32,0008.88,0005.03
2023-01-13 23:53:00,,0827.4,5.00,0.00,27.0,25.6,00.0,35.8,28.8,09.8,0000.0,0005.53,0009.96,0005.22
2023-01-13 23:54:00,,0827.4,5.00,0.00,27.0,25.6,00.0,35.8,28.8,10.0,0000.0,0005.66,0010.32,0005.34
2023-01-13 23:55:00,,0827.3,5.01,0.00,27.0,25.6,00.0,35.8,28.8,09.7,0000.0,0005.79,0010.42,0005.47
2023-01-13 23:56:00,,0827.3,5.00,0.00,27.0,25.5,00.0,35.8,28.7,09.8,0000.7,0005.94,0010.89,0005.60
2023-01-13 23:57:00,,0827.3,4.99,0.00,26.9,25.4,00.0,35.8,28.7,10.0,0008.6,0006.09,0011.39,0005.74
2023-01-13 23:58:00,,0827.4,5.00,0.00,26.9,25.3,00.0,35.8,28.7,09.9,0008.5,0006.21,0011.88,0005.88
2023-01-13 23:59:00,,0827.4,5.00,0.00,26.9,25.3,00.0,35.8,28.7,10.0,0008.1,0006.35,0012.09,0006.01
